Regional Weather Roundup
Issued by NWS

Home | Current Version | Previous Version | Text Only | Print | Product List | Glossary On
Versions: 1 2 3 4 5 6 7 8 9 10 11 12 13 14 15 16 17 18 19 20 21 22 23 24 25 26 27 28 29 30 31 32 33 34 35 36 37 38 39 40 41 42 43 44 45 46 47 48 49 50
273
ASUS43 KTOP 080559
RWRKS

WEATHER ROUNDUP FOR KANSAS
NATIONAL WEATHER SERVICE GOODLAND KS
1200 AM CST THU DEC 08 2016

NOTE:  "FAIR" INDICATES FEW OR NO CLOUDS BELOW 12,000 FEET WITH NO
SIGNIFICANT WEATHER AND/OR OBSTRUCTIONS TO VISIBILITY.

KSZ001>006-013>018-027>032-041>047-080700-
NORTHWEST KANSAS

CITY           SKY/WX    TMP DP  RH WIND       PRES   REMARKS
GOODLAND       CLEAR      2  -4  76 NW13      30.49R WCI -15
6HR MIN TEMP:   1; 6HR MAX TEMP:  14;

HAYS           CLEAR     14   9  80 NW10      30.57R WCI   1
HILL CITY      CLEAR     11   5  77 NW13      30.57R WCI  -4
6HR MIN TEMP:   9; 6HR MAX TEMP:  19;

RUSSELL        CLEAR     15  10  80 NW13      30.55R WCI   1
6HR MIN TEMP:  15; 6HR MAX TEMP:  19;

$$

KSZ061>065-074>080-084>089-080700-
SOUTHWEST KANSAS

CITY           SKY/WX    TMP DP  RH WIND       PRES   REMARKS
DODGE CITY     PTCLDY    13   9  84 NW12      30.54R WCI  -1
6HR MIN TEMP:  13; 6HR MAX TEMP:  22; 6HR PCP: TRACE;

ELKHART          N/A     15   3  59 N6          N/A
GARDEN CITY    CLOUDY    10   5  80 NW9       30.53R
6HR MIN TEMP:  10; 6HR MAX TEMP:  20; 6HR PCP: TRACE;

GREAT BEND     CLEAR     16  12  84 NW13      30.56R WCI   2
LIBERAL        CLOUDY    18   9  68 NW6       30.54R
$$

KSZ066>073-081>083-090>101-080700-
SOUTHEAST KANSAS

CITY           SKY/WX    TMP DP  RH WIND       PRES   REMARKS
CHANUTE        CLEAR     20  15  81 NW8       30.52R
6HR MIN TEMP:  20; 6HR MAX TEMP:  28; 6HR PCP: TRACE;

COFFEYVILLE    CLEAR     23  19  85 N12       30.54R WCI  12
6HR MIN TEMP:  23; 6HR MAX TEMP:  30; 6HR PCP: TRACE;

HUTCHINSON     CLEAR     19  12  74 NW8       30.55R
6HR MIN TEMP:  19; 6HR MAX TEMP:  23;

MEDICINE LODGE   N/A     19  13  77 N9        30.56R
NEWTON         CLEAR     18  13  80 NW9       30.54R
PARSONS        CLEAR     21  17  84 N8        30.54R
6HR MIN TEMP:  20; 6HR MAX TEMP:  30; 6HR PCP: TRACE;

WICHITA INTL   CLEAR     20  14  77 NW7       30.56R
6HR MIN TEMP:  20; 6HR MAX TEMP:  27;

WICHITA JABRA  CLEAR     19  15  84 NW8       30.55R
6HR MIN TEMP:  19; 6HR MAX TEMP:  24;

WINFIELD       CLEAR     20  16  84 N7        30.56R
6HR MIN TEMP:  20; 6HR MAX TEMP:  28;

$$

KSZ007>012-019>026-033>040-048>060-102>105-080700-
NORTHEAST KANSAS

CITY           SKY/WX    TMP DP  RH WIND       PRES   REMARKS
CONCORDIA      CLEAR     16   6  65 NW12      30.54R WCI   3
6HR MIN TEMP:  14; 6HR MAX TEMP:  21;

EMPORIA        CLEAR     17  11  77 NW7       30.52R
6HR MIN TEMP:  17; 6HR MAX TEMP:  23;

LAWRENCE       CLEAR     20  10  65 NW13      30.51R WCI   7
6HR MIN TEMP:  15; 6HR MAX TEMP:  25;

MANHATTAN      CLEAR     19   7  59 VRB3      30.54R
6HR MIN TEMP:  18; 6HR MAX TEMP:  23;

OLATHE IND     CLEAR     20   9  62 NW10      30.49R WCI   9
6HR MIN TEMP:  19; 6HR MAX TEMP:  25;

OLATHE EXE     CLEAR     20   8  60 NW10      30.47R WCI   9
6HR MIN TEMP:  20; 6HR MAX TEMP:  24;

SALINA         CLEAR     17  12  80 NW9       30.56R
6HR MIN TEMP:  17; 6HR MAX TEMP:  21;

TOPEKA BILLARD CLEAR     19   9  65 NW9       30.51S
6HR MIN TEMP:  19; 6HR MAX TEMP:  25;

TOPEKA FORBES  CLEAR     20   9  62 NW9       30.50R
6HR MIN TEMP:  19; 6HR MAX TEMP:  24;

$$




USA.gov is the U.S. government's official web portal to all federal, state and local government web resources and services.